• In United Kingdom
  • List of Countries
  • For 7 days
  • Water Temperature
  • Satellite Maps
  • Weather Map
  • Weather Widgets
  • user-avatar
    Login

    Hourly Weather Tirana

    Today, 19 June, Tuesday

    Time Temperature Precipitation Wind Pressure Humidity
    00:00 +21°C° 0 mm 4 mps 751 mmHg 76%
    01:00 +20°C° 0 mm 4 mps 751 mmHg 76%
    02:00 +20°C° 0 mm 4 mps 751 mmHg 76%
    03:00 +20°C° 0 mm 4 mps 751 mmHg 76%
    04:00 +20°C° 0 mm 4 mps 751 mmHg 76%
    05:00 +21°C° 0 mm 4 mps 751 mmHg 73%
    06:00 +23°C° 0 mm 4 mps 751 mmHg 69%
    07:00 +26°C° 0 mm 4 mps 752 mmHg 66%
    08:00 +27°C° 0 mm 4 mps 752 mmHg 61%
    09:00 +29°C° 0 mm 4 mps 752 mmHg 55%
    10:00 +30°C° 0 mm 3 mps 752 mmHg 50%
    11:00 +31°C° 0.1 mm 3 mps 752 mmHg 49%
    12:00 +32°C° 0.1 mm 4 mps 752 mmHg 48%
    13:00 +33°C° 0.1 mm 4 mps 752 mmHg 46%
    14:00 +33°C° 0.3 mm 4 mps 752 mmHg 48%
    15:00 +32°C° 0.3 mm 5 mps 752 mmHg 50%
    16:00 +32°C° 0.3 mm 5 mps 752 mmHg 52%
    17:00 +29°C° 0.3 mm 5 mps 752 mmHg 58%
    18:00 +28°C° 0.3 mm 5 mps 752 mmHg 64%
    19:00 +26°C° 0.3 mm 4 mps 752 mmHg 71%
    20:00 +25°C° 0.3 mm 4 mps 753 mmHg 72%
    21:00 +25°C° 0.3 mm 3 mps 753 mmHg 74%
    22:00 +24°C° 0.3 mm 3 mps 754 mmHg 76%
    23:00 +22°C° 0.1 mm 3 mps 754 mmHg 76%

    Tomorrow, 20 June, Wednesday

    Time Temperature Precipitation Wind Pressure Humidity
    00:00 +22°C° 0.1 mm 3 mps 754 mmHg 76%
    01:00 +21°C° 0.1 mm 3 mps 754 mmHg 77%
    02:00 +21°C° 0.2 mm 3 mps 754 mmHg 76%
    03:00 +21°C° 0.2 mm 3 mps 754 mmHg 76%
    04:00 +20°C° 0.2 mm 3 mps 754 mmHg 76%
    05:00 +22°C° 0.1 mm 3 mps 754 mmHg 72%
    06:00 +25°C° 0.1 mm 3 mps 754 mmHg 69%
    07:00 +27°C° 0.1 mm 3 mps 754 mmHg 65%
    08:00 +28°C° 0.1 mm 2 mps 755 mmHg 58%
    09:00 +30°C° 0.1 mm 2 mps 755 mmHg 51%
    10:00 +31°C° 0.1 mm 2 mps 755 mmHg 44%
    11:00 +32°C° 0.1 mm 2 mps 755 mmHg 43%
    12:00 +33°C° 0.1 mm 3 mps 754 mmHg 41%
    13:00 +34°C° 0.1 mm 3 mps 754 mmHg 40%
    14:00 +33°C° 0.1 mm 3 mps 754 mmHg 44%
    15:00 +33°C° 0.1 mm 4 mps 754 mmHg 47%
    16:00 +32°C° 0.1 mm 4 mps 754 mmHg 51%
    17:00 +29°C° 0.1 mm 3 mps 754 mmHg 56%
    18:00 +28°C° 0.1 mm 3 mps 754 mmHg 61%
    19:00 +26°C° 0.1 mm 3 mps 754 mmHg 67%
    20:00 +26°C° 0.1 mm 2 mps 755 mmHg 68%
    21:00 +25°C° 0.1 mm 2 mps 755 mmHg 69%
    22:00 +24°C° 0.1 mm 2 mps 755 mmHg 70%
    23:00 +23°C° 0.2 mm 2 mps 755 mmHg 70%

    Day after tomorrow, 21 June, Thursday

    Time Temperature Precipitation Wind Pressure Humidity
    00:00 +23°C° 0.2 mm 2 mps 755 mmHg 69%
    01:00 +23°C° 0.2 mm 2 mps 755 mmHg 69%
    02:00 +21°C° 0.1 mm 2 mps 755 mmHg 68%
    03:00 +21°C° 0.1 mm 2 mps 754 mmHg 67%
    04:00 +21°C° 0.1 mm 2 mps 754 mmHg 66%
    05:00 +24°C° 0 mm 2 mps 754 mmHg 64%
    06:00 +26°C° 0 mm 2 mps 754 mmHg 61%
    07:00 +27°C° 0 mm 2 mps 754 mmHg 58%
    08:00 +29°C° 0.1 mm 1 mps 754 mmHg 53%
    09:00 +30°C° 0.1 mm 1 mps 754 mmHg 48%
    10:00 +32°C° 0.1 mm 1 mps 754 mmHg 44%
    11:00 +32°C° 0.1 mm 2 mps 754 mmHg 44%
    12:00 +33°C° 0.1 mm 3 mps 753 mmHg 44%
    13:00 +34°C° 0.1 mm 3 mps 753 mmHg 45%
    14:00 +33°C° 0.4 mm 3 mps 753 mmHg 48%
    15:00 +31°C° 0.4 mm 3 mps 752 mmHg 52%
    16:00 +31°C° 0.4 mm 3 mps 752 mmHg 56%
    17:00 +29°C° 0.2 mm 3 mps 752 mmHg 62%
    18:00 +27°C° 0.2 mm 2 mps 752 mmHg 68%
    19:00 +26°C° 0.2 mm 1 mps 752 mmHg 74%
    20:00 +25°C° 0 mm 1 mps 753 mmHg 75%
    21:00 +24°C° 0 mm 1 mps 753 mmHg 76%
    22:00 +24°C° 0 mm 1 mps 753 mmHg 77%
    23:00 +23°C° 0 mm 1 mps 753 mmHg 78%

    22 June, Friday

    Time Temperature Precipitation Wind Pressure Humidity
    00:00 +23°C° 0 mm 1 mps 753 mmHg 78%
    01:00 +21°C° 0 mm 2 mps 752 mmHg 79%
    02:00 +21°C° 0.1 mm 2 mps 752 mmHg 79%
    03:00 +21°C° 0.1 mm 2 mps 752 mmHg 78%
    04:00 +20°C° 0.1 mm 2 mps 752 mmHg 78%
    05:00 +23°C° 0 mm 2 mps 752 mmHg 74%
    06:00 +25°C° 0 mm 2 mps 752 mmHg 69%
    07:00 +26°C° 0 mm 2 mps 752 mmHg 65%
    08:00 +28°C° 0 mm 2 mps 752 mmHg 61%
    09:00 +29°C° 0 mm 2 mps 752 mmHg 57%
    10:00 +30°C° 0 mm 2 mps 751 mmHg 53%
    11:00 +30°C° 0 mm 3 mps 751 mmHg 52%
    12:00 +31°C° 0 mm 3 mps 751 mmHg 51%
    13:00 +32°C° 0 mm 4 mps 751 mmHg 50%
    14:00 +32°C° 0 mm 4 mps 750 mmHg 52%
    15:00 +30°C° 0 mm 3 mps 750 mmHg 54%
    16:00 +30°C° 0 mm 3 mps 750 mmHg 56%
    17:00 +28°C° 0 mm 3 mps 750 mmHg 62%
    18:00 +27°C° 0 mm 2 mps 750 mmHg 68%
    19:00 +25°C° 0 mm 2 mps 751 mmHg 74%
    20:00 +24°C° 0 mm 2 mps 751 mmHg 75%
    21:00 +24°C° 0 mm 2 mps 751 mmHg 77%
    22:00 +23°C° 0 mm 2 mps 751 mmHg 79%
    23:00 +21°C° 0.1 mm 2 mps 751 mmHg 80%

    23 June, Saturday

    Time Temperature Precipitation Wind Pressure Humidity
    00:00 +21°C° 0.1 mm 2 mps 751 mmHg 80%
    01:00 +21°C° 0.1 mm 2 mps 751 mmHg 80%
    02:00 +20°C° 0.2 mm 3 mps 752 mmHg 80%
    03:00 +20°C° 0.2 mm 3 mps 752 mmHg 80%
    04:00 +20°C° 0.2 mm 3 mps 752 mmHg 79%
    05:00 +21°C° 0.1 mm 3 mps 752 mmHg 75%
    06:00 +22°C° 0.1 mm 3 mps 752 mmHg 71%
    07:00 +25°C° 0.1 mm 3 mps 753 mmHg 67%
    08:00 +26°C° 0.1 mm 3 mps 753 mmHg 63%
    09:00 +27°C° 0.1 mm 3 mps 753 mmHg 60%
    10:00 +28°C° 0.1 mm 3 mps 753 mmHg 56%
    11:00 +27°C° 0.3 mm 4 mps 753 mmHg 61%
    12:00 +26°C° 0.3 mm 5 mps 753 mmHg 65%
    13:00 +25°C° 0.3 mm 5 mps 753 mmHg 70%
    14:00 +25°C° 0.5 mm 5 mps 753 mmHg 71%
    15:00 +23°C° 0.5 mm 4 mps 752 mmHg 72%
    16:00 +23°C° 0.5 mm 4 mps 752 mmHg 73%
    17:00 +22°C° 0 mm 4 mps 752 mmHg 75%
    18:00 +22°C° 0 mm 4 mps 753 mmHg 76%
    19:00 +21°C° 0 mm 4 mps 753 mmHg 77%
    20:00 +20°C° 0 mm 4 mps 753 mmHg 77%
    21:00 +20°C° 0 mm 4 mps 753 mmHg 77%
    22:00 +19°C° 0 mm 4 mps 753 mmHg 76%
    23:00 +19°C° 0 mm 4 mps 753 mmHg 75%

    24 June, Sunday

    Time Temperature Precipitation Wind Pressure Humidity
    00:00 +19°C° 0 mm 4 mps 753 mmHg 74%
    01:00 +19°C° 0 mm 4 mps 753 mmHg 73%
    02:00 +18°C° 0 mm 4 mps 753 mmHg 73%
    03:00 +18°C° 0 mm 4 mps 753 mmHg 72%
    04:00 +18°C° 0 mm 4 mps 753 mmHg 72%
    05:00 +19°C° 0 mm 4 mps 753 mmHg 68%
    06:00 +21°C° 0 mm 4 mps 753 mmHg 65%
    07:00 +22°C° 0 mm 4 mps 753 mmHg 61%
    08:00 +25°C° 0 mm 3 mps 753 mmHg 57%
    09:00 +27°C° 0 mm 3 mps 753 mmHg 54%
    10:00 +28°C° 0 mm 3 mps 753 mmHg 50%
    11:00 +29°C° 0.1 mm 3 mps 753 mmHg 49%
    12:00 +30°C° 0.1 mm 3 mps 753 mmHg 48%
    13:00 +31°C° 0.1 mm 3 mps 752 mmHg 46%
    14:00 +30°C° 0.1 mm 4 mps 752 mmHg 47%
    15:00 +30°C° 0.1 mm 4 mps 752 mmHg 47%
    16:00 +30°C° 0.1 mm 5 mps 752 mmHg 48%
    17:00 +28°C° 0 mm 4 mps 752 mmHg 54%
    18:00 +27°C° 0 mm 4 mps 752 mmHg 59%
    19:00 +25°C° 0 mm 4 mps 752 mmHg 65%
    20:00 +23°C° 0.1 mm 4 mps 752 mmHg 67%
    21:00 +22°C° 0.1 mm 4 mps 753 mmHg 68%
    22:00 +21°C° 0.1 mm 3 mps 753 mmHg 70%
    23:00 +21°C° 0.4 mm 3 mps 753 mmHg 71%
    Show more